Date_and_time,latitude,longitude,wind_speed,RelWindDirFrom,WindDirFrom,air_pressure,air_temperature,relative_humidity,Temp,platform_speed_wrt_ground,air_pressure_at_mean_sea_level,platform_orientation
2018-11-18 23:50,50.6304533333333,-96.9807716666667,6.7,9.6,322,994.35,-13.8,69,0.89,0.0,1023.82,204.3
2018-11-19 00:00,50.6304566666667,-96.9807733333333,7.6,11.0,326,994.35,-13.7,69,0.90,0.0,1023.82,311.7
2018-11-19 00:00,50.6304566666667,-96.9807733333333,10.5,10.6,332,994.34,-13.7,69,0.90,0.0,1023.81,38.0
2018-11-19 00:10,50.6304533333333,-96.9807766666667,7.9,11.3,344,994.45,-13.6,70,0.91,0.0,1023.92,38.0
2018-11-19 00:20,50.630445,-96.9807666666667,8.6,12.5,340,994.50,-13.5,70,0.92,0.0,1023.96,38.0
2018-11-19 00:30,50.6304416666667,-96.9807816666667,8.6,11.6,336,994.58,-13.6,71,0.93,0.0,1024.05,38.0
2018-11-19 00:40,50.6304433333333,-96.9807783333333,8.0,11.6,334,994.71,-13.6,71,0.93,0.0,1024.18,38.0
2018-11-19 00:50,50.6304466666667,-96.980775,8.8,11.7,345,994.80,-13.5,72,0.94,0.0,1024.27,38.0
2018-11-19 01:00,50.63046,-96.9807733333333,8.2,11.1,343,994.90,-13.5,72,0.96,0.0,1024.38,14.5
2018-11-19 01:10,50.6304566666667,-96.9807733333333,7.9,10.4,339,994.99,-13.6,71,0.98,0.0,1024.47,14.5
2018-11-19 01:20,50.6304516666667,-96.9807716666667,8.6,11.8,342,995.05,-13.6,72,1.01,0.0,1024.58,14.5
2018-11-19 01:30,50.6304533333333,-96.9807683333333,11.3,16.3,1,995.07,-13.2,72,1.02,0.0,1024.62,14.5
2018-11-19 01:40,50.6304466666667,-96.9807716666667,15.1,18.8,8,995.05,-12.7,72,1.04,0.0,1024.56,14.5
2018-11-19 01:50,50.6304483333333,-96.9807633333333,16.0,21.7,12,995.17,-12.7,71,1.05,0.0,1024.68,14.5
2018-11-19 02:00,50.630435,-96.9807716666667,15.3,19.4,8,995.26,-12.7,72,1.05,0.0,1024.77,161.1
2018-11-19 02:10,50.630455,-96.98076,15.7,19.5,10,995.32,-12.7,72,1.03,0.0,1024.83,161.1
2018-11-19 02:20,50.6304583333333,-96.98077,15.8,19.1,14,995.39,-12.8,71,1.01,0.0,1024.91,161.1
2018-11-19 02:30,50.6304583333333,-96.980765,14.3,18.7,22,995.49,-12.8,69,0.99,0.0,1025.01,161.1
2018-11-19 02:40,50.6304566666667,-96.980765,13.1,16.0,27,995.68,-12.8,69,0.97,0.0,1025.20,161.1
2018-11-19 02:50,50.6304566666667,-96.980765,13.4,19.6,26,995.74,-12.8,69,0.96,0.0,1025.27,161.1
2018-11-19 03:00,50.6304566666667,-96.9807633333333,13.3,17.0,20,995.83,-12.8,69,0.93,0.0,1025.36,90.0
2018-11-19 03:10,50.6304566666667,-96.9807633333333,13.0,17.7,19,995.93,-12.9,69,0.92,0.0,1025.47,90.0
2018-11-19 03:20,50.6304566666667,-96.9807633333333,13.2,17.0,21,995.96,-12.8,70,0.91,0.0,1025.47,90.0
2018-11-19 03:30,50.6304566666667,-96.980765,13.9,18.4,18,995.99,-12.9,69,0.91,0.0,1025.48,90.0
2018-11-19 03:40,50.6304566666667,-96.980765,12.5,17.2,28,996.09,-13.1,68,0.92,0.0,1025.60,90.0
2018-11-19 03:50,50.6304316666667,-96.980765,13.5,18.1,27,996.09,-13.0,69,0.92,0.0,1025.59,90.0
2018-11-19 04:00,50.6304566666667,-96.9807766666667,13.8,16.9,18,996.17,-13.0,69,0.92,0.0,1025.67,360.0
2018-11-19 04:10,50.6304466666667,-96.9807683333333,14.1,19.0,20,996.27,-13.1,69,0.92,0.0,1025.79,360.0
2018-11-19 04:20,50.6304483333333,-96.9807733333333,12.0,17.1,12,996.38,-13.2,70,0.92,0.0,1025.90,360.0
2018-11-19 04:30,50.6304483333333,-96.9807716666667,13.3,18.3,9,996.45,-13.2,69,0.92,0.0,1025.99,360.0
2018-11-19 04:40,50.63045,-96.9807683333333,10.4,16.4,4,996.66,-13.4,69,0.93,0.0,1026.21,360.0
2018-11-19 04:50,50.6304566666667,-96.98077,11.2,15.3,23,996.72,-13.3,69,0.94,0.0,1026.26,360.0
2018-11-19 05:00,50.630455,-96.9807633333333,11.3,15.1,28,996.85,-13.3,69,0.94,0.0,1026.40,23.5
2018-11-19 05:10,50.6304533333333,-96.9807583333333,10.4,14.3,28,996.92,-13.3,70,0.94,0.0,1026.47,23.5
2018-11-19 05:20,50.6304533333333,-96.98076,12.8,16.3,36,996.90,-13.3,70,0.94,0.0,1026.45,23.5
2018-11-19 05:30,50.6304533333333,-96.9807616666667,12.4,16.3,27,997.01,-13.2,71,0.94,0.0,1026.57,23.5
2018-11-19 05:40,50.630455,-96.9807633333333,11.5,14.5,14,997.14,-13.3,71,0.94,0.0,1026.71,23.5
2018-11-19 05:50,50.630455,-96.9807616666667,11.4,15.3,9,997.23,-13.4,70,0.93,0.0,1026.81,23.5
2018-11-19 06:00,50.630455,-96.9807633333333,11.4,16.9,1,997.27,-13.5,70,0.93,0.0,1026.86,0.0
2018-11-19 06:10,50.6304516666667,-96.9807833333333,10.3,14.2,0,997.45,-13.6,69,0.93,0.0,1027.05,0.0
2018-11-19 06:20,50.6304516666667,-96.9807716666667,10.1,13.7,355,997.50,-13.7,69,0.92,0.0,1027.12,0.0
2018-11-19 06:30,50.63045,-96.980745,8.3,14.0,342,997.60,-13.9,69,0.92,0.0,1027.24,0.0
2018-11-19 06:40,50.6304466666667,-96.98076,8.5,11.8,330,997.73,-14.2,68,0.91,0.0,1027.38,0.0
2018-11-19 06:50,50.6304466666667,-96.9807633333333,8.5,12.8,328,997.80,-14.4,67,0.90,0.0,1027.46,0.0
2018-11-19 07:00,50.630425,-96.9807666666667,8.2,11.2,324,997.83,-14.6,67,0.90,0.0,1027.51,150.1
2018-11-19 07:10,50.630445,-96.98077,7.6,11.5,322,997.89,-14.7,67,0.90,0.0,1027.58,150.1
2018-11-19 07:20,50.63045,-96.9807666666667,8.7,12.1,348,997.96,-14.4,68,0.90,0.0,1027.62,150.1
2018-11-19 07:30,50.6304533333333,-96.9807716666667,9.7,12.8,4,998.04,-14.0,70,0.90,0.0,1027.69,150.1
2018-11-19 07:40,50.630455,-96.9807716666667,11.1,15.1,360,998.01,-14.1,68,0.89,0.0,1027.68,150.1
2018-11-19 07:50,50.6304533333333,-96.9807716666667,10.6,15.5,13,998.19,-14.3,67,0.89,0.0,1027.87,150.1
2018-11-19 08:00,50.630455,-96.98077,10.0,14.8,16,998.34,-14.4,67,0.89,0.0,1028.04,0.0
2018-11-19 08:10,50.6304533333333,-96.9807716666667,12.2,15.2,28,998.31,-14.3,67,0.89,0.0,1028.01,0.0
2018-11-19 08:20,50.630455,-96.9807716666667,12.2,15.4,17,998.37,-14.4,67,0.89,0.0,1028.09,0.0
2018-11-19 08:30,50.630455,-96.9807716666667,9.8,13.3,14,998.62,-14.4,67,0.89,0.0,1028.37,0.0
2018-11-19 08:40,50.630455,-96.9807716666667,12.3,16.1,13,998.67,-14.3,68,0.89,0.0,1028.42,0.0
2018-11-19 08:50,50.630445,-96.98079,7.2,13.4,342,998.86,-14.5,69,0.88,0.0,1028.65,0.0
2018-11-19 09:00,50.6304516666667,-96.9807683333333,7.2,11.0,331,998.95,-14.8,69,0.88,0.0,1028.76,90.0
2018-11-19 09:10,50.630455,-96.980765,6.7,10.7,327,999.03,-14.9,68,0.88,0.0,1028.83,90.0
2018-11-19 09:20,50.630455,-96.9807666666667,7.3,11.4,318,999.23,-15.0,68,0.87,0.0,1029.01,90.0
2018-11-19 09:30,50.630455,-96.9807666666667,7.1,9.7,313,999.33,-15.1,68,0.88,0.0,1029.13,90.0
2018-11-19 09:40,50.630455,-96.9807666666667,6.9,9.9,335,999.43,-15.0,68,0.88,0.0,1029.24,90.0
2018-11-19 09:50,50.630455,-96.9807666666667,6.1,10.7,334,999.53,-14.9,69,0.88,0.0,1029.34,90.0
2018-11-19 10:00,50.6304566666667,-96.980765,7.3,10.4,340,999.64,-14.9,69,0.88,0.0,1029.45,28.9
2018-11-19 10:10,50.63046,-96.9807666666667,5.6,9.1,332,999.79,-15.0,69,0.88,0.0,1029.61,28.9
2018-11-19 10:20,50.6304533333333,-96.980775,7.7,10.8,315,999.77,-15.1,68,0.88,0.0,1029.60,28.9
2018-11-19 10:30,50.63044,-96.9807933333333,7.1,12.1,325,999.81,-15.0,68,0.88,0.0,1029.63,28.9
2018-11-19 10:40,50.6304516666667,-96.9807716666667,6.9,9.5,326,999.84,-15.0,67,0.88,0.0,1029.67,28.9
2018-11-19 10:50,50.630455,-96.980765,8.2,12.4,328,999.85,-15.0,67,0.88,0.0,1029.70,28.9
2018-11-19 11:00,50.630455,-96.980765,7.7,11.5,322,999.91,-15.1,66,0.88,0.0,1029.78,0.0
2018-11-19 11:10,50.6304533333333,-96.9807633333333,7.9,11.2,321,999.97,-15.1,65,0.89,0.0,1029.84,0.0
2018-11-19 11:20,50.6304383333333,-96.9807716666667,7.9,11.9,323,1000.02,-15.2,65,0.87,0.0,1029.90,0.0
2018-11-19 11:30,50.63046,-96.9807716666667,7.9,12.7,325,1000.13,-15.2,64,0.87,0.0,1030.01,0.0
2018-11-19 11:40,50.6304516666667,-96.980775,9.3,12.9,322,1000.19,-15.2,63,0.87,0.0,1030.07,0.0
2018-11-19 11:50,50.630455,-96.980775,8.6,13.2,329,1000.24,-15.2,63,0.86,0.0,1030.11,0.0
2018-11-19 12:00,50.6304533333333,-96.9807766666667,8.5,11.3,328,1000.29,-15.2,63,0.86,0.0,1030.17,270.0
2018-11-19 12:10,50.6304883333333,-96.9808016666667,8.4,11.7,329,1000.42,-15.1,64,0.86,0.0,1030.31,270.0
2018-11-19 12:20,50.6304466666667,-96.980775,7.5,11.5,323,1000.51,-15.1,63,0.86,0.0,1030.40,270.0
2018-11-19 12:30,50.6304433333333,-96.9807666666667,7.7,11.2,326,1000.63,-15.2,64,0.86,0.0,1030.52,270.0
2018-11-19 12:40,50.6304483333333,-96.98077,7.9,11.3,323,1000.73,-15.4,64,0.86,0.0,1030.65,270.0
2018-11-19 12:50,50.63045,-96.9807716666667,6.8,9.1,320,1000.88,-15.5,63,0.86,0.0,1030.80,270.0
2018-11-19 13:00,50.6304516666667,-96.98077,5.8,7.8,322,1000.94,-15.6,64,0.86,0.0,1030.88,90.0
2018-11-19 13:10,50.63046,-96.9807733333333,6.2,9.0,319,1000.99,-15.7,64,0.86,0.0,1030.94,90.0
2018-11-19 13:20,50.630455,-96.9807816666667,5.8,8.3,322,1001.00,-15.8,64,0.86,0.0,1030.95,90.0
2018-11-19 13:30,50.6304483333333,-96.9807616666667,6.0,7.8,314,1001.13,-15.8,63,0.85,0.0,1031.09,90.0
2018-11-19 13:40,50.630435,-96.980765,5.9,8.6,316,1001.23,-15.9,64,0.85,0.0,1031.20,90.0
2018-11-19 13:50,50.630435,-96.9807733333333,6.1,9.1,317,1001.35,-15.8,64,0.85,0.0,1031.31,90.0
2018-11-19 14:00,50.63044,-96.9807833333333,6.2,9.1,319,1001.41,-15.7,64,0.85,0.0,1031.37,235.2
2018-11-19 14:10,50.6304433333333,-96.9807783333333,6.3,9.3,311,1001.46,-15.6,64,0.84,0.0,1031.42,235.2
2018-11-19 14:20,50.6304433333333,-96.980775,6.1,9.1,310,1001.61,-15.7,65,0.84,0.0,1031.59,235.2
2018-11-19 14:30,50.630445,-96.9807716666667,5.6,8.4,312,1001.80,-15.8,65,0.84,0.0,1031.79,235.2
2018-11-19 14:40,50.6304516666667,-96.9807816666667,6.1,10.1,318,1001.86,-15.7,65,0.83,0.0,1031.85,235.2
2018-11-19 14:50,50.6304516666667,-96.9807783333333,5.3,8.0,319,1001.90,-15.6,64,0.83,0.0,1031.90,235.2
2018-11-19 15:00,50.6304466666667,-96.9807783333333,5.2,7.5,324,1001.94,-15.6,65,0.83,0.0,1031.94,240.8
2018-11-19 15:10,50.6304483333333,-96.9807783333333,5.6,8.5,322,1002.07,-15.5,65,0.83,0.0,1032.07,240.8
2018-11-19 15:20,50.6304483333333,-96.9807766666667,5.3,7.5,325,1002.18,-15.5,65,0.83,0.0,1032.19,240.8
2018-11-19 15:30,50.6304483333333,-96.980775,5.5,7.7,324,1002.26,-15.5,65,0.83,0.0,1032.27,240.8
2018-11-19 15:40,50.6304466666667,-96.980775,5.2,8.0,317,1002.32,-15.5,65,0.84,0.0,1032.34,240.8
2018-11-19 15:50,50.6304466666667,-96.980775,6.2,9.5,330,1002.37,-15.2,64,0.84,0.0,1032.36,240.8
2018-11-19 16:00,50.6304466666667,-96.980775,7.5,10.9,334,1002.40,-14.7,63,0.85,0.0,1032.35,192.6
2018-11-19 16:10,50.6304466666667,-96.9807733333333,8.1,12.5,341,1002.46,-14.4,62,0.85,0.0,1032.40,192.6
2018-11-19 16:20,50.6304483333333,-96.9807733333333,9.0,12.3,351,1002.30,-14.3,61,0.85,0.0,1032.24,192.6
2018-11-19 16:30,50.6304483333333,-96.9807733333333,9.0,13.5,353,1002.32,-14.3,62,0.86,0.0,1032.26,192.6
2018-11-19 16:40,50.6304466666667,-96.9807733333333,10.0,13.3,356,1002.31,-14.2,62,0.86,0.0,1032.23,192.6
2018-11-19 16:50,50.6304466666667,-96.9807716666667,9.7,12.9,3,1002.36,-14.1,63,0.86,0.0,1032.28,192.6
2018-11-19 17:00,50.6304466666667,-96.9807716666667,9.6,13.3,4,1002.36,-14.0,62,0.86,0.0,1032.27,60.8
2018-11-19 17:10,50.63045,-96.9807766666667,8.7,11.3,4,1002.38,-13.9,62,0.85,0.0,1032.28,60.8
2018-11-19 17:20,50.6304416666667,-96.9807733333333,8.6,12.3,1,1002.32,-13.8,62,0.85,0.0,1032.21,60.8
2018-11-19 17:30,50.63044,-96.9807616666667,8.3,11.4,353,1002.33,-13.8,61,0.85,0.0,1032.22,60.8
2018-11-19 17:40,50.6304433333333,-96.9807683333333,7.7,10.5,6,1002.23,-13.6,61,0.85,0.0,1032.10,60.8
2018-11-19 17:50,50.6304416666667,-96.9807666666667,6.8,10.3,324,1002.09,-13.7,59,0.84,0.0,1031.92,60.8
2018-11-19 18:00,50.6304416666667,-96.9807666666667,5.5,9.8,354,1002.05,-13.5,59,0.84,0.0,1031.85,113.6
2018-11-19 18:10,50.6304433333333,-96.9807683333333,6.6,9.5,5,1001.98,-13.5,61,0.84,0.0,1031.78,113.6
2018-11-19 18:20,50.6304433333333,-96.9807683333333,4.6,7.3,337,1001.93,-13.8,59,0.83,0.0,1031.74,113.6
2018-11-19 18:30,50.6304433333333,-96.9807683333333,3.4,6.6,14,1001.90,-13.2,57,0.83,0.0,1031.67,113.6
2018-11-19 18:40,50.630445,-96.98077,3.1,7.2,5,1001.80,-13.2,59,0.83,0.0,1031.56,113.6
2018-11-19 18:50,50.630445,-96.98077,4.3,7.3,313,1001.78,-13.1,55,0.82,0.0,1031.52,113.6
2018-11-19 19:00,50.630445,-96.9807716666667,5.3,8.5,315,1001.76,-13.0,54,0.82,0.0,1031.49,360.0
2018-11-19 19:10,50.630445,-96.9807716666667,4.2,8.4,297,1001.68,-13.1,56,0.82,0.0,1031.41,360.0
2018-11-19 19:20,50.6304466666667,-96.9807716666667,3.3,6.4,292,1001.64,-13.6,57,0.82,0.0,1031.40,360.0
2018-11-19 19:30,50.6304483333333,-96.98077,2.3,6.1,344,1001.64,-12.5,53,0.98,0.0,1031.33,360.0
2018-11-19 19:40,50.6304483333333,-96.98077,3.1,6.2,340,1001.57,-12.3,54,0.82,0.0,1031.25,360.0
2018-11-19 19:50,50.6304483333333,-96.98077,3.8,9.2,8,1001.40,-12.8,62,0.82,0.0,1031.09,360.0
2018-11-19 20:00,50.6304483333333,-96.980745,4.6,6.7,312,1001.36,-13.0,56,0.82,0.0,1031.06,90.0
2018-11-19 20:10,50.63045,-96.980755,3.9,8.7,297,1001.33,-12.6,53,0.82,0.0,1031.03,90.0
2018-11-19 20:20,50.6304483333333,-96.9807633333333,3.9,8.0,284,1001.15,-12.4,52,0.82,0.0,1030.79,90.0
2018-11-19 20:30,50.6304466666667,-96.9807633333333,4.2,7.7,326,1001.03,-12.7,54,0.82,0.0,1030.68,90.0
2018-11-19 20:40,50.6304466666667,-96.980765,3.7,6.5,349,1001.00,-12.8,55,0.82,0.0,1030.65,90.0
2018-11-19 20:50,50.6304466666667,-96.980765,2.8,5.4,359,1000.93,-12.9,56,0.83,0.0,1030.58,90.0
2018-11-19 21:00,50.6304466666667,-96.9807666666667,3.2,5.4,345,1000.76,-13.0,57,0.85,0.0,1030.42,360.0
2018-11-19 21:10,50.6304416666667,-96.98077,3.4,5.4,313,1000.63,-13.0,56,0.87,0.0,1030.31,360.0
2018-11-19 21:20,50.6304433333333,-96.9807683333333,2.6,4.9,321,1000.54,-12.5,54,0.88,0.0,1030.13,360.0
2018-11-19 21:30,50.630445,-96.98077,3.1,6.1,332,1000.39,-12.9,54,0.90,0.0,1029.99,360.0
2018-11-19 21:40,50.630445,-96.98077,1.2,3.3,328,1000.32,-13.0,55,0.90,0.0,1029.95,360.0
2018-11-19 21:50,50.6304466666667,-96.98077,0.7,3.0,304,1000.23,-12.6,54,0.92,0.0,1029.85,360.0
2018-11-19 22:00,50.6304466666667,-96.98077,1.5,4.6,244,1000.20,-12.5,52,0.93,0.0,1029.79,12.6
2018-11-19 22:10,50.6304633333333,-96.9807733333333,2.9,4.3,210,1000.12,-12.7,53,0.93,0.0,1029.70,12.6
2018-11-19 22:20,50.6304583333333,-96.9807716666667,2.9,4.0,211,1000.00,-13.1,55,0.94,0.0,1029.62,12.6
2018-11-19 22:30,50.630455,-96.9807733333333,2.9,4.2,192,999.79,-13.3,56,0.95,0.0,1029.42,12.6
2018-11-19 22:40,50.6304533333333,-96.980775,3.7,4.8,177,999.58,-13.5,56,0.95,0.0,1029.22,12.6
2018-11-19 22:50,50.630445,-96.98077,4.0,5.4,180,999.40,-13.4,58,0.96,0.0,1029.04,12.6
2018-11-19 23:00,50.6304433333333,-96.980785,6.0,8.4,182,999.38,-13.4,61,0.96,0.0,1029.02,258.2
2018-11-19 23:10,50.6304333333333,-96.9807566666667,7.1,8.4,170,999.24,-13.6,67,0.96,0.0,1028.86,258.2
2018-11-19 23:20,50.630445,-96.9807633333333,6.6,8.4,170,999.20,-13.5,70,0.95,0.0,1028.83,258.2
2018-11-19 23:30,50.630445,-96.980765,6.0,8.4,180,999.28,-13.5,71,0.93,0.0,1028.92,258.2
